Location: Zagreb
(45.8000°N, 16.0000°E)
Time: 20:31:42
(UTC+02:00)

SR - Pass Details

Date: 18 August 2020
Orbit: 583 x 873 km, 66.7° (Epoch: 28 September)

Event Time Altitude Azimuth Distance (km) Brightness Sun altitude
Rises 04:35:14 0° 332° (NNW) 2,828 ? -13.9°
Reaches altitude 10° 04:37:33 10° 340° (NNW) 1,941 ? -13.6°
Maximum altitude 04:41:39 40° 51° (NE) 911 ? -13.0°
Drops below altitude 10° 04:45:58 10° 121° (ESE) 2,042 ? -12.3°
Sets 04:48:27 0° 129° (SE) 2,995 ? -12.0°
